Wild Rice, North Dakota
Current Conditions -  °F | °C
As of 6:12 PM on Friday 19 Dec 2014 (Local Time) from KJKJ Reporting Station
Haze Haze  
Wind Chill: 20°   Ceiling: 700
Heat Index: 30°   Visibility: 5mi
Dew Point: 30°   Wind: 13mph
Humidity: 100%   Direction: 170°S
Pressure: 30.04"   Gusts: NA
Location:  46.7039°N, 96.8572°W
Report Text: KJKJ 200012Z AUTO 17011KT 5SM BR OVC007 M01/M01 A3004 RMK AO2
Loading
Personal Weather Stations






























Interactive Weather Map New forecast layout! Learn more

10-Day Weather Forecast

Advertisements
Track Severe Weather on mobile